Location: Observatorio Las Palmas
(29.0667°N, 110.9333°W)
Time: 23:37:49
(UTC-07:00)

Daily predictions for brighter satellites

Satellite Brightness Start Highest point End
(mag) Time Altitude Azimuth Time Altitude Azimuth Time Altitude Azimuth
Meteor 1-26 Rocket 4.2 17:43:14 10° S 17:48:50 73° E 17:54:23 10° NNE
SJ-7 4.4 17:45:58 10° SSE 17:50:08 68° ENE 17:54:15 10° N
USA 116 3.8 17:46:18 10° NNE 17:50:36 61° E 17:54:20 10° S
BREEZE M DEB (TANK) 4.1 17:38:07 10° NW 17:51:44 69° NE 17:55:30 10° ESE
Cosmos 1763 Rocket 4.3 17:47:28 10° N 17:51:52 28° ENE 17:56:12 10° SE
ALOS 3.9 17:50:51 10° E 17:53:14 14° ENE 17:55:37 10° NE
Cosmos 1703 Rocket 4.2 17:54:19 10° SSE 17:58:25 37° E 18:02:32 10° NNE
Cosmos 2278 Rocket 2.3 17:55:10 10° SSW 18:00:50 85° WNW 18:06:32 10° NNE
Cosmos 1814 Rocket 4.5 17:56:07 10° N 18:01:08 40° ENE 18:06:06 10° SE
Cosmos 1833 Rocket 4.4 18:00:53 10° NE 18:02:59 12° ENE 18:05:02 10° E
SMAP 3.0 17:58:24 10° SSE 18:03:03 82° ENE 18:07:41 10° N
TSX-5 4.3 18:01:25 10° NNW 18:05:08 70° WSW 18:09:50 10° SSE
Cosmos 1484 Rocket 2.9 18:03:15 10° S 18:07:02 79° W 18:10:55 10° NNW
Ariane Rocket 3.2 18:03:11 10° S 18:08:16 79° WSW 18:13:22 10° NNW
Cosmos 1633 4.0 18:05:44 10° NNE 18:08:19 18° E 18:10:55 10° SE
Cosmos 1464 Rocket 4.4 18:07:38 10° SSE 18:13:14 39° E 18:18:51 10° NNE
CORIOLIS 4.2 18:08:31 10° SSE 18:13:58 87° ENE 18:19:25 10° NNW
Cosmos 1606 2.9 18:10:47 10° SSE 18:14:26 47° E 18:18:04 10° NNE
Meteor 1-28 Rocket 4.4 18:13:27 10° N 18:16:58 43° WNW 18:20:30 10° SSW
Cosmos 1486 Rocket 4.4 18:17:11 10° SSW 18:22:19 66° WNW 18:27:32 10° N
Cosmos 1782 2.8 18:18:48 10° S 18:22:47 62° E 18:26:45 10° NNE
EO 1 Del DPAF 3.1 18:19:58 10° NNE 18:23:48 85° ESE 18:27:37 10° S
Cosmos 841 Rocket 3.8 18:20:42 10° N 18:25:44 44° ENE 18:30:43 10° SE
Meteor 2-6 Rocket 4.2 18:23:16 10° SSE 18:28:28 52° E 18:33:45 10° NNE
SKYMED 2 3.6 18:25:39 10° N 18:30:00 81° W 18:34:19 10° SSW
Cosmos 1908 Rocket 3.4 18:26:15 10° N 18:30:35 72° E 18:34:52 10° S
USA 234 3.9 18:25:13 10° NNE 18:31:32 54° NW 18:37:51 10° WSW
SPOT 3 Rocket 3.7 18:27:49 10° SE 18:32:49 48° ENE 18:37:48 10° N
Centaur AC-112 4.2 18:30:27 10° W 18:36:38 29° SSW 18:39:07 10° SSE
Cosmos 1354 Rocket 3.9 18:32:38 10° S 18:37:54 82° ESE 18:43:12 10° NNE
Sich 1 Rocket 3.5 18:33:58 10° N 18:38:23 73° E 18:42:50 10° S
Meteor 1-25 Rocket 4.2 18:33:13 10° N 18:39:03 86° E 18:44:50 10° S
GPS 2-05 Rocket1 2.5 18:38:59 10° WSW 18:42:10 78° SSE 18:42:59 47° E
NOAA 12 4.2 18:37:40 10° SSE 18:42:49 52° ENE 18:47:58 10° N
Meteor 1-20 Rocket 4.1 18:37:56 10° N 18:43:29 86° E 18:48:57 10° S
Cosmos 405 Rocket 2.8 18:40:00 10° S 18:43:44 50° E 18:45:18 29° NE
Cosmos 2082 Rocket 2.9 18:42:19 10° N 18:47:17 30° ENE 18:47:57 29° ENE
Orbus 7S 4.1 18:45:10 10° WSW 18:47:52 56° SSE 18:49:49 30° ESE
GENESIS II 4.1 18:44:00 10° NNW 18:47:54 89° WSW 18:51:47 10° SSE
CZ-4C R/B 4.5 18:44:49 10° NNE 18:47:31 14° NE 18:47:31 14° NE
MONITOR-E 4.3 18:47:42 10° S 18:50:43 71° W 18:53:46 10° NNW
Meteor 1-27 Rocket 3.9 18:46:48 10° S 18:52:28 55° E 18:58:11 10° NNE
Cosmos 972 4.5 18:48:27 10° NNW 18:53:23 77° WSW 18:58:15 10° S
ERS-2 3.2 18:52:02 10° S 18:55:35 47° W 18:59:09 10° NNW
Cosmos 1513 Rocket 4.4 18:50:57 10° S 18:57:18 87° E 19:03:36 10° N
Okean 1-7 3.8 18:55:20 10° SSW 18:59:33 53° W 19:03:51 10° N
Meteor 1-10 Rocket 4.5 18:54:06 10° SSW 18:59:41 70° W 19:05:23 10° N
CZ-3A R/B 3.7 18:50:44 10° NW 19:00:49 50° NE 19:03:14 33° E
ERBS 2.6 18:57:31 10° NNW 19:00:21 56° N 19:00:21 56° N
USA 229 DEB 3.9 19:05:33 10° S 19:11:47 42° ESE 19:12:23 41° E
USA 229 4.0 19:05:40 10° S 19:11:53 42° ESE 19:12:26 41° E
Thor Agena Rocket 3.4 19:11:18 30° NNE 19:13:52 83° ESE 19:19:00 10° SSW
Cosmos 1782 Rocket 4.1 19:10:33 10° NNW 19:14:48 57° W 19:19:04 10° S
OAO 3 Rocket 3.1 19:09:55 10° WSW 19:14:52 85° SSE 19:15:23 71° E
Aurora 2 Rocket 4.3 19:12:03 10° WSW 19:16:19 24° SSW 19:18:02 19° S
BREEZE-M DEB (TANK) 2.4 19:13:27 10° NW 19:17:59 66° WSW 19:17:59 66° WSW
Gblst 52 Del rocket 4.4 19:15:46 10° SSW 19:21:03 52° SE 19:21:03 52° SE
Cosmos 2034 Rocket 4.5 19:22:33 10° SSW 19:28:49 61° W 19:35:07 10° N
ALOS 3.4 19:25:50 10° S 19:30:14 42° W 19:34:40 10° NNW
FENGYUN 3A 4.5 19:27:07 10° S 19:32:20 50° W 19:37:35 10° NNW
Nadezhda 4 Rocket 4.1 19:30:26 10° N 19:38:12 50° SSE 19:42:39 10° S
Meteor 1-11 Rocket 3.8 19:30:58 10° N 19:40:08 26° S 19:42:31 10° S
Cosmos 2369 Rocket 4.1 19:33:37 10° S 19:34:51 16° SSE 19:34:51 16° SSE
Cosmos 1833 Rocket 2.9 19:41:47 10° NNW 19:46:55 68° WNW 19:46:55 68° WNW
Cosmos 968 Rocket 4.5 19:51:04 10° SW 19:55:56 42° WNW 19:55:59 42° WNW
Cosmos 2082 Rocket 4.1 20:26:29 10° NW 20:29:58 25° W 20:29:58 25° W
